Temperature
29 29 29 30 31 31 31 31 31 32 33 32 31 31 31 31 31 30 29 28 27 26 25 24 23 23 22 21 20 20 19 19 19 18 18 18 18 18 18 18 18 18 18 18
30 29 30 31 32 31 31 30 31 32 33 32 31 31 31 31 30 30 29 28 27 26 25 24 23 23 22 21 20 20 19 19 19 18 18 18 18 18 18 18 18 18 18 18
29 30 31 31 31 30 31 30 31 31 32 31 30 30 30 30 30 29 29 28 27 26 25 24 23 23 22 21 20 20 19 19 19 18 18 18 18 18 18 18 18 18 18 18
30 31 31 30 30 30 30 31 31 31 30 30 29 28 28 29 28 29 28 28 27 26 25 24 23 23 22 21 20 20 19 19 19 18 18 18 18 18 18 18 18 18 18 18
30 31 30 30 30 31 30 32 31 31 30 29 29 28 28 28 27 27 28 28 27 27 26 24 24 23 22 21 20 20 19 19 19 18 18 18 18 18 18 18 18 18 18 17
30 31 31 30 31 31 31 31 30 30 30 28 28 28 27 27 27 27 28 27 27 26 26 24 24 23 22 22 21 20 19 19 19 18 18 18 18 18 17 17 17 17 17 17
29 30 31 31 30 31 30 29 28 27 27 27 28 28 27 28 28 28 27 27 27 26 25 24 23 23 22 22 21 20 19 19 19 19 18 18 18 18 17 17 17 17 17 17
28 28 30 30 30 29 29 29 26 25 26 27 28 27 27 28 28 28 27 26 26 25 25 24 23 23 22 21 21 20 19 19 19 18 18 18 18 18 17 17 17 17 17 17
28 28 30 31 31 30 29 28 29 27 27 26 27 27 27 27 27 27 27 26 26 25 24 24 23 22 22 21 21 20 19 19 19 19 19 18 18 18 18 17 17 17 17 17
28 27 29 30 30 30 30 29 28 27 25 25 26 26 26 26 27 27 27 26 25 25 24 23 22 22 22 21 20 20 19 19 19 19 19 18 18 18 18 17 17 17 17 17
28 26 27 29 28 28 29 28 28 28 27 26 25 25 27 26 27 26 26 26 25 24 23 23 22 22 21 20 20 20 19 19 19 18 18 18 18 18 18 17 17 17 17 17
28 27 26 27 29 29 29 28 28 26 26 26 26 25 27 27 26 25 25 24 24 23 23 22 21 21 21 20 20 19 19 19 18 18 18 18 18 17 17 17 17 17 17 17
26 25 25 26 27 28 27 28 28 27 26 26 25 25 27 26 25 24 24 24 23 23 22 22 21 20 20 20 19 19 18 18 18 18 18 17 17 17 17 17 17 16 16 16
25 25 24 24 25 25 26 27 27 26 26 25 25 25 25 25 24 24 23 23 22 22 21 21 20 20 20 19 19 19 18 18 18 18 17 17 17 17 17 17 16 16 16 16
25 24 25 25 26 26 26 26 27 26 26 25 25 25 25 24 24 23 23 22 22 21 20 20 19 19 19 19 18 18 18 18 17 17 17 17 17 17 17 16 16 16 16 16
25 23 24 24 25 26 26 26 26 26 26 26 25 24 25 24 24 23 22 22 21 20 20 19 19 18 18 18 18 18 17 17 17 17 17 17 16 16 16 16 16 16 16 16
24 23 23 23 25 25 25 26 26 26 26 26 24 24 24 24 23 23 22 21 20 20 19 18 18 17 17 17 17 17 17 17 16 16 16 16 16 16 16 16 16 15 15 15
23 23 22 23 23 22 25 27 27 26 26 25 24 24 24 23 22 22 21 20 20 19 18 17 17 17 16 16 17 16 16 16 16 16 16 16 16 16 16 15 15 15 15 15
24 22 22 22 22 23 25 25 26 25 24 24 24 24 23 22 22 21 20 19 18 18 17 17 16 16 16 16 16 16 16 16 16 16 15 15 15 15 15 15 15 15 15 15
24 23 22 22 21 21 23 24 25 25 23 23 23 22 22 22 21 20 19 18 18 17 16 16 16 15 15 15 15 15 15 15 15 15 15 15 15 14 14 14 14 14 14 14
22 22 21 21 21 22 23 24 24 22 21 21 21 21 21 20 19 18 18 17 17 16 16 15 15 15 15 15 15 14 14 14 15 15 14 14 14 14 14 14 14 14 14 14
22 22 21 21 21 21 22 22 22 20 20 20 20 20 19 19 18 18 17 17 16 16 15 15 15 14 14 14 14 14 14 14 14 14 14 14 14 14 14 14 14 14 13 13
22 22 22 21 21 21 21 21 20 20 20 20 19 19 19 18 18 18 17 16 16 15 15 15 14 14 14 13 13 13 13 13 13 13 13 13 13 13 13 13 13 13 13 13
21 22 21 21 21 21 20 20 20 20 19 19 19 18 18 18 18 17 16 16 15 15 14 14 14 14 13 13 13 13 13 13 13 13 13 13 13 13 13 13 13 13 13 13
20 20 20 20 20 20 20 20 19 19 19 19 18 18 18 18 17 17 16 15 15 15 14 14 14 13 13 13 13 13 12 12 12 12 12 12 12 12 13 13 13 13 13 13
20 20 19 19 19 19 18 18 19 18 18 18 18 17 17 17 16 16 15 15 15 14 14 14 13 13 13 13 13 12 12 12 12 12 12 12 12 12 12 12 12 13 12 13
Wind_Speed
13 14 13 13 15 15 14 14 12 9 7 8 10 10 9 9 9 10 10 10 10 10 9 10 10 11 11 10 8 7 6 5 3 2 2 1 1 0 0 1 2 2 0 1
13 16 15 13 13 13 15 14 12 8 5 7 9 10 9 8 7 7 9 10 9 10 10 9 10 11 11 10 9 8 6 6 4 3 2 2 2 2 1 1 2 2 2 2
14 11 11 12 12 12 14 13 12 10 7 8 10 11 8 8 7 6 8 9 9 10 10 10 10 10 11 10 9 8 7 6 4 4 2 2 1 1 1 2 1 1 1 1
13 12 8 11 12 13 13 12 12 12 11 9 9 9 8 8 7 7 8 8 8 10 12 11 11 10 10 11 10 8 7 6 5 4 4 3 3 2 2 2 2 2 2 2
11 10 10 12 13 12 12 12 12 14 12 12 10 9 7 9 8 8 7 7 8 9 11 11 11 11 10 10 10 9 7 6 6 5 4 3 3 2 2 2 2 3 2 2
14 10 10 12 12 10 11 11 11 12 12 13 12 10 7 6 10 10 8 6 6 7 8 9 9 9 8 9 9 9 8 7 6 5 5 4 3 2 2 2 2 2 2 2
14 13 10 10 11 9 9 10 7 8 9 10 12 10 4 4 9 9 8 7 7 6 6 7 9 9 8 8 9 9 9 8 7 6 5 4 4 3 2 2 2 2 2 2
11 11 11 9 10 9 10 11 8 9 9 9 10 7 3 3 5 8 7 5 6 6 5 6 7 7 7 6 7 7 8 8 8 7 5 5 4 3 3 3 3 2 1 1
7 8 8 8 9 10 10 10 11 12 14 11 6 4 5 6 5 7 8 6 4 5 5 4 5 6 5 5 6 6 7 7 7 7 6 5 4 3 2 2 3 2 2 2
9 10 8 6 7 11 12 10 8 9 9 10 7 6 5 8 8 6 7 7 5 6 5 5 3 4 4 4 5 5 6 6 7 7 6 6 5 4 3 2 3 3 2 2
9 8 9 7 9 10 9 11 10 8 8 8 8 4 3 4 5 6 5 5 7 5 5 4 3 4 5 4 3 4 5 5 5 5 5 4 5 5 4 3 3 3 3 3
6 6 9 10 9 9 9 10 9 7 8 9 7 2 4 6 7 6 6 7 6 5 3 3 3 5 4 3 2 3 3 4 5 5 4 3 3 4 4 3 3 3 3 3
4 4 7 9 7 6 7 8 8 7 7 9 9 3 5 6 8 6 6 6 5 4 3 4 5 5 4 4 2 2 3 2 2 4 5 4 3 3 3 3 3 3 3 3
4 6 8 9 7 6 9 11 10 9 8 8 8 3 4 5 6 5 5 5 4 5 5 5 6 5 5 4 3 2 2 2 2 3 3 4 4 3 3 3 2 3 3 3
4 8 10 11 12 11 10 11 10 9 10 9 7 3 2 4 6 4 5 4 4 5 6 6 6 6 5 4 3 2 2 2 1 1 2 3 3 3 3 3 3 3 2 3
4 7 9 12 13 13 13 12 11 11 11 9 5 2 1 5 6 5 5 4 4 5 5 6 5 4 4 4 3 2 2 2 1 1 2 2 2 3 2 3 3 2 2 2
5 6 9 11 12 12 12 11 10 8 7 6 4 1 1 3 3 4 3 4 4 4 5 5 4 4 4 2 2 2 1 1 1 1 1 2 2 2 2 2 3 2 2 2
6 6 6 9 9 11 6 4 5 5 3 0 2 2 1 2 4 4 4 4 5 5 5 5 4 3 3 3 1 1 1 1 2 1 1 1 1 1 2 2 2 2 2 1
6 6 6 7 9 10 6 3 4 4 2 2 1 1 3 4 2 4 5 6 5 5 4 3 3 3 2 2 2 0 1 1 1 1 1 1 1 1 1 1 1 1 1 1
8 6 7 9 9 8 2 3 4 3 3 3 4 2 2 1 2 2 6 6 6 5 4 3 3 2 2 2 2 1 0 0 0 0 0 1 1 1 1 1 1 1 1 2
8 9 11 12 11 5 2 3 3 4 1 4 4 3 2 2 2 2 2 3 4 3 2 2 2 2 2 2 2 1 1 1 1 0 0 0 1 1 1 1 1 2 2 2
7 7 8 9 9 5 5 3 2 4 4 4 3 2 3 2 2 1 1 2 2 1 1 2 2 2 2 2 1 1 1 2 1 1 1 0 0 2 2 1 2 2 2 2
5 4 4 3 1 3 4 4 3 2 1 2 2 2 1 1 1 0 1 1 1 1 1 1 1 1 1 1 1 1 1 2 1 1 1 1 1 2 1 1 2 3 3 3
4 3 4 3 2 2 1 1 1 1 1 1 0 1 2 2 2 1 0 0 1 1 1 1 0 0 0 0 1 1 1 2 2 2 2 2 2 2 2 2 2 2 3 3
6 5 5 5 4 3 1 1 1 1 1 2 1 3 3 2 2 2 1 0 1 0 1 1 1 1 1 1 1 1 1 1 2 2 3 3 2 2 1 1 1 2 1 1
7 5 6 4 3 3 4 3 3 2 2 2 2 3 2 2 2 2 1 0 1 1 1 1 2 2 1 2 2 2 2 2 2 2 3 3 2 2 2 2 1 2 0 2
Wind_Direction
219 227 234 229 229 247 263 262 260 244 208 222 224 223 204 198 189 180 171 164 164 161 156 149 152 147 140 135 137 141 141 133 142 143 154 158 152 175 115 119 120 122 145 260
228 230 240 243 241 246 260 265 266 260 221 241 247 236 207 189 191 185 168 162 165 160 154 154 155 154 149 147 150 155 152 152 166 148 157 179 175 188 171 118 136 156 179 213
234 238 233 244 251 256 256 260 263 261 239 239 260 247 215 177 179 185 173 169 168 164 163 161 160 159 159 158 162 162 157 159 169 157 169 180 167 213 182 174 175 187 193 189
242 245 243 247 248 250 256 255 266 268 254 248 243 255 228 186 178 188 185 172 174 165 165 168 167 169 168 165 163 155 156 158 165 170 180 188 191 206 203 194 184 194 203 209
247 243 244 246 251 252 264 273 267 270 265 259 250 250 241 179 183 195 185 176 170 165 164 164 168 170 169 166 165 162 157 163 169 181 178 201 210 205 201 188 182 188 189 212
255 245 239 244 254 257 265 271 264 264 264 256 257 255 243 197 185 191 175 166 151 154 154 158 161 154 163 168 166 161 159 167 172 182 184 203 214 214 201 186 187 188 185 201
242 238 236 246 251 243 253 260 261 258 253 251 256 253 222 173 159 164 154 161 152 150 152 158 159 160 163 168 167 164 162 170 178 188 190 196 206 204 209 204 206 205 197 189
244 237 226 226 237 246 242 247 252 261 260 259 245 234 192 114 113 131 131 135 143 140 138 152 153 155 158 158 157 160 165 175 181 187 192 191 197 207 211 212 214 203 214 179
272 259 233 228 234 246 249 250 256 266 277 276 254 209 161 143 137 141 137 144 142 130 122 124 148 151 154 160 155 154 162 174 179 184 188 183 183 204 210 193 206 206 204 175
275 284 254 226 241 236 252 261 261 258 271 276 265 242 209 171 161 144 140 147 131 113 109 94 106 133 133 146 150 150 155 169 179 182 185 182 184 190 196 198 192 178 178 142
269 276 271 247 237 249 242 250 262 271 269 271 271 270 158 144 133 136 129 117 104 104 110 105 117 126 115 109 132 151 155 162 166 175 182 174 175 181 189 197 179 165 166 145
259 275 275 269 260 266 257 254 253 261 273 280 277 263 94 95 90 85 91 84 85 78 72 94 88 98 95 94 106 127 145 164 169 165 160 159 161 170 182 187 178 167 161 158
298 272 268 261 241 257 262 261 263 262 268 272 271 218 107 98 92 82 84 77 67 80 71 74 71 77 81 89 85 108 132 132 145 149 154 154 164 169 172 183 180 179 167 166
282 263 262 268 287 295 283 269 261 258 257 265 273 228 149 122 109 107 97 89 66 58 58 65 64 53 56 71 78 95 128 125 122 129 149 161 173 178 171 169 176 177 174 170
260 261 264 268 273 268 264 267 261 258 264 262 266 261 186 119 119 113 96 92 75 56 48 55 56 40 39 50 48 55 73 91 114 156 153 161 168 174 175 176 172 160 162 179
232 276 284 277 269 269 269 263 259 258 259 261 270 286 85 88 95 96 89 84 72 61 49 45 48 45 33 29 21 37 47 86 136 230 172 156 168 169 169 164 159 158 152 158
233 258 274 275 276 275 262 262 257 255 255 261 258 244 89 94 98 90 83 85 78 62 50 43 40 36 22 24 27 44 47 65 155 209 168 157 151 158 170 169 154 167 165 146
251 260 267 272 274 263 268 305 275 260 255 180 160 182 154 88 85 80 72 69 64 53 43 33 24 30 23 17 26 82 97 129 156 192 172 126 134 149 151 151 146 163 165 178
229 241 262 268 266 263 267 304 296 272 261 40 90 94 73 66 103 96 73 71 68 60 46 31 25 19 18 11 1 67 141 135 174 211 127 158 162 164 159 150 145 166 197 198
208 218 245 262 268 269 283 7 341 275 225 60 80 58 55 38 283 69 49 55 67 61 48 26 18 23 18 8 5 19 328 238 233 217 246 196 151 153 185 164 157 181 224 226
214 221 236 254 261 266 16 6 311 262 60 62 61 47 38 32 48 63 46 45 62 59 42 29 25 32 22 15 16 13 354 321 323 344 218 96 106 170 211 186 213 219 223 226
239 242 239 250 257 257 29 359 357 54 43 43 34 35 49 62 83 108 56 66 67 43 12 22 34 33 26 22 21 13 358 357 359 350 342 16 292 255 230 189 222 232 225 220
254 262 277 284 274 81 50 57 72 79 36 34 12 351 352 275 252 129 52 68 13 341 4 35 43 39 30 19 16 346 349 347 348 343 329 308 279 277 252 219 227 227 226 228
275 295 279 280 217 184 143 100 55 10 349 324 243 279 274 276 278 289 293 299 327 337 15 19 332 321 315 323 315 339 345 329 320 295 277 263 254 252 263 248 241 241 240 236
299 298 286 278 297 302 287 289 310 327 318 307 283 268 268 263 272 289 283 238 178 195 223 230 226 223 231 257 276 290 293 298 286 279 270 259 246 245 247 238 273 244 227 229
271 270 267 275 315 308 303 293 296 280 273 283 288 291 302 310 294 298 313 322 192 188 203 230 236 233 232 242 262 268 261 254 259 264 270 264 244 224 225 219 239 31 144 153
Height
1478 1479 1477 1472 1469 1468 1466 1467 1467 1461 1456 1462 1467 1468 1467 1469 1472 1476 1481 1486 1490 1493 1496 1499 1503 1506 1508 1510 1512 1514 1516 1518 1519 1521 1522 1523 1524 1525 1525 1525 1525 1525 1526 1526
1473 1474 1467 1463 1462 1464 1465 1468 1467 1460 1456 1461 1465 1466 1464 1467 1470 1474 1478 1483 1488 1491 1495 1498 1502 1504 1506 1508 1510 1512 1514 1516 1517 1519 1520 1522 1523 1523 1524 1524 1524 1524 1524 1525
1470 1465 1460 1462 1464 1467 1466 1468 1466 1464 1460 1461 1467 1470 1466 1466 1469 1473 1477 1481 1485 1489 1492 1496 1499 1502 1505 1507 1508 1510 1512 1514 1516 1517 1519 1520 1521 1522 1522 1522 1523 1523 1523 1523
1463 1459 1460 1463 1464 1465 1470 1460 1460 1461 1466 1471 1470 1485 1471 1468 1470 1473 1476 1479 1483 1486 1490 1493 1497 1500 1503 1505 1507 1509 1510 1512 1514 1515 1517 1518 1519 1519 1520 1521 1521 1521 1522 1522
1462 1458 1461 1465 1462 1460 1462 1456 1458 1460 1464 1471 1470 1481 1475 1467 1474 1475 1476 1478 1481 1484 1487 1491 1494 1498 1501 1504 1505 1507 1508 1510 1512 1513 1515 1516 1517 1518 1518 1519 1519 1520 1520 1520
1458 1455 1457 1459 1457 1457 1457 1459 1460 1461 1466 1483 1476 1479 1482 1470 1473 1474 1475 1478 1481 1484 1487 1490 1493 1496 1499 1502 1504 1505 1506 1508 1509 1511 1512 1513 1514 1516 1517 1517 1518 1518 1518 1519
1462 1456 1455 1456 1460 1459 1461 1471 1483 1487 1488 1486 1470 1474 1478 1465 1464 1470 1474 1478 1481 1484 1486 1489 1491 1494 1496 1499 1501 1502 1504 1505 1507 1508 1510 1511 1512 1513 1514 1515 1516 1516 1517 1517
1468 1466 1455 1455 1459 1463 1463 1469 1488 1500 1494 1484 1471 1477 1473 1466 1466 1470 1474 1477 1480 1483 1485 1487 1489 1492 1495 1496 1499 1500 1502 1503 1505 1506 1507 1509 1510 1511 1512 1513 1514 1515 1516 1516
1467 1466 1451 1451 1454 1458 1464 1466 1464 1476 1477 1484 1476 1473 1471 1467 1469 1471 1473 1477 1479 1482 1484 1487 1489 1491 1493 1495 1497 1498 1499 1501 1502 1504 1505 1506 1508 1509 1511 1512 1513 1513 1514 1515
1462 1469 1455 1452 1454 1454 1457 1459 1467 1476 1490 1494 1484 1481 1476 1470 1469 1470 1472 1475 1479 1482 1485 1487 1489 1490 1492 1494 1496 1497 1498 1499 1500 1502 1503 1504 1506 1507 1508 1509 1510 1511 1512 1513
1460 1470 1463 1457 1460 1461 1460 1463 1465 1467 1470 1487 1494 1487 1464 1466 1467 1470 1473 1476 1479 1482 1485 1487 1489 1490 1491 1492 1494 1496 1497 1498 1499 1500 1501 1503 1504 1505 1506 1507 1508 1509 1511 1512
1461 1466 1471 1463 1454 1453 1455 1459 1464 1478 1480 1475 1483 1487 1463 1465 1469 1472 1476 1479 1481 1483 1485 1487 1488 1489 1490 1492 1493 1495 1496 1497 1498 1499 1500 1502 1503 1504 1505 1506 1507 1508 1509 1510
1466 1471 1481 1474 1467 1460 1460 1459 1460 1466 1472 1477 1483 1484 1466 1468 1472 1476 1478 1481 1483 1484 1485 1486 1488 1489 1490 1491 1493 1494 1495 1497 1498 1499 1499 1500 1501 1502 1503 1504 1505 1506 1507 1508
1470 1473 1480 1485 1477 1470 1469 1463 1462 1467 1475 1479 1478 1477 1471 1472 1475 1478 1480 1483 1485 1486 1486 1487 1488 1489 1490 1492 1493 1494 1495 1496 1497 1498 1498 1499 1500 1501 1502 1503 1504 1505 1506 1506
1470 1474 1472 1469 1465 1464 1466 1464 1462 1466 1468 1474 1473 1474 1472 1472 1476 1480 1481 1484 1486 1486 1487 1488 1489 1490 1490 1491 1492 1493 1494 1494 1495 1497 1497 1498 1499 1500 1501 1501 1502 1503 1504 1505
1471 1476 1474 1473 1465 1463 1463 1460 1460 1462 1464 1465 1468 1474 1471 1473 1476 1480 1483 1484 1486 1487 1489 1489 1490 1490 1490 1491 1491 1492 1493 1493 1495 1496 1496 1497 1497 1498 1499 1500 1500 1501 1502 1503
1471 1476 1480 1478 1467 1465 1469 1459 1459 1460 1460 1464 1471 1475 1473 1475 1478 1481 1483 1485 1487 1488 1489 1490 1490 1490 1490 1490 1491 1491 1492 1493 1494 1494 1495 1495 1495 1496 1497 1498 1499 1499 1500 1501
1472 1476 1478 1477 1476 1485 1465 1453 1454 1458 1461 1463 1467 1471 1474 1477 1480 1482 1484 1486 1487 1488 1489 1490 1490 1490 1490 1490 1490 1491 1491 1491 1493 1493 1494 1494 1494 1495 1495 1496 1496 1497 1498 1499
1469 1475 1478 1479 1480 1474 1463 1457 1457 1461 1466 1466 1468 1471 1474 1477 1479 1483 1484 1486 1488 1488 1489 1490 1489 1489 1489 1489 1489 1490 1490 1491 1491 1492 1491 1493 1493 1493 1494 1494 1495 1495 1496 1496
1467 1471 1478 1477 1483 1483 1470 1460 1460 1463 1471 1469 1470 1474 1476 1478 1481 1485 1485 1486 1487 1488 1489 1489 1489 1488 1488 1488 1488 1488 1488 1489 1489 1490 1490 1491 1492 1492 1493 1493 1493 1494 1494 1494
1471 1473 1476 1477 1478 1471 1466 1463 1464 1474 1477 1473 1474 1476 1478 1480 1483 1486 1486 1486 1487 1488 1488 1488 1488 1487 1487 1487 1486 1486 1487 1487 1488 1489 1489 1490 1490 1491 1491 1492 1492 1492 1492 1493
1469 1472 1474 1475 1479 1479 1467 1466 1470 1476 1475 1475 1476 1478 1480 1481 1483 1484 1485 1486 1487 1487 1487 1487 1487 1486 1486 1485 1485 1485 1485 1486 1487 1487 1487 1487 1488 1489 1490 1490 1490 1490 1490 1491
1466 1468 1468 1470 1474 1471 1470 1472 1474 1475 1476 1477 1478 1479 1480 1481 1482 1483 1484 1485 1486 1486 1486 1486 1486 1485 1485 1485 1484 1484 1484 1484 1485 1485 1485 1486 1486 1486 1487 1487 1487 1488 1488 1488
1465 1465 1466 1469 1468 1469 1471 1472 1474 1475 1476 1477 1478 1479 1480 1480 1481 1482 1483 1484 1484 1484 1484 1485 1484 1484 1484 1483 1483 1483 1483 1483 1483 1483 1483 1483 1483 1483 1484 1484 1485 1485 1485 1486
1469 1468 1468 1470 1470 1470 1471 1472 1473 1475 1476 1476 1477 1478 1479 1479 1480 1481 1481 1482 1482 1482 1483 1483 1483 1483 1482 1482 1482 1482 1482 1481 1481 1481 1481 1481 1481 1481 1481 1481 1482 1482 1482 1483
1467 1468 1471 1471 1472 1472 1473 1472 1473 1474 1475 1476 1477 1477 1478 1478 1479 1480 1480 1480 1481 1481 1481 1482 1481 1481 1481 1480 1480 1480 1480 1480 1480 1479 1479 1479 1479 1479 1479 1479 1479 1479 1480 1480